This demonstration page uses our WeatherBlox Daily Observations layout. Learn more.

Left ArrowRight Arrow

44.8408, -93.29828

Hourly Observations for September 3, 2017

Temp ( °F °C ) Dew Point ( °F °C ) Humidity (%) Winds ( mph kmh ) Pressure ( in mb ) Visibility ( mi km ) Precip ( " mm )
12:53 am 00:53 Clear 65 18.3 56 13.3 73 73 SSW 3 6 29.95 1014 10 16 0.00 0.00
1:53 am 01:53 Clear 63 17.2 56 13.3 78 78 Calm 29.95 1014 10 16 0.00 0.00
2:53 am 02:53 Clear 62 16.7 56 13.3 80 80 Calm 29.95 1014 10 16 0.00 0.00
3:53 am 03:53 Clear 61 16.1 56 13.3 84 84 Calm 29.95 1014 10 16 0.00 0.00
4:53 am 04:53 Clear 61 16.1 56 13.3 84 84 SSW 5 7 29.96 1015 10 16 0.00 0.00
5:53 am 05:53 Clear 60 15.6 56 13.3 86 86 SSW 3 6 29.96 1014 10 16 0.00 0.00
6:53 am 06:53 Mostly Sunny 60 15.6 56 13.3 86 86 VRB 3 6 29.96 1014 10 16 0.00 0.00
7:53 am 07:53 Partly Cloudy 63 17.2 57 13.9 81 81 SW 3 6 29.95 1014 10 16 0.00 0.00
8:53 am 08:53 Partly Cloudy 67 19.4 58 14.4 73 73 SW 6 9 29.96 1014 10 16 0.00 0.00
9:53 am 09:53 Partly Cloudy 71 21.7 58 14.4 63 63 WSW 12 19 29.94 1014 10 16 0.00 0.00
10:53 am 10:53 Partly Cloudy 74 23.3 60 15.6 62 62 WSW 7 11 29.93 1014 10 16 0.00 0.00
11:53 am 11:53 Partly Cloudy 79 26.1 60 15.6 52 52 WSW 10 17 29.91 1013 10 16 0.00 0.00
12:53 pm 12:53 Partly Cloudy 81 27.2 59 15 47 47 WSW 13 20 29.89 1012 10 16 0.00 0.00
1:53 pm 13:53 Partly Cloudy 83 28.3 59 15 44 44 SSW 13 20 29.87 1012 10 16 0.00 0.00
2:53 pm 14:53 Mostly Cloudy 85 29.4 61 16.1 45 45 SSW 12 19 29.83 1010 10 16 0.00 0.00
3:53 pm 15:53 Mostly Cloudy 84 28.9 60 15.6 44 44 SSW 10 17 29.81 1010 10 16 0.00 0.00
4:53 pm 16:53 Mostly Cloudy 84 28.9 62 16.7 48 48 SSW 15 24 29.78 1009 9 14 0.00 0.00
5:53 pm 17:53 Sunny 83 28.3 63 17.2 51 51 SSW 14 22 29.76 1008 10 16 0.00 0.00
6:53 pm 18:53 Sunny 81 27.2 66 18.9 61 61 SW 12 19 29.75 1008 10 16 0.00 0.00
7:53 pm 19:53 Clear 80 26.7 67 19.4 64 64 SSW 9 15 29.73 1007 10 16 0.00 0.00
8:53 pm 20:53 Clear 78 25.6 67 19.4 69 69 SW 10 17 29.72 1007 10 16 0.00 0.00
9:53 pm 21:53 Clear 77 25 67 19.4 71 71 SSW 10 17 29.70 1006 10 16 0.00 0.00
10:53 pm 22:53 Clear 77 25 68 20 74 74 SW 12 19 29.69 1005 10 16 0.00 0.00
11:53 pm 23:53 Clear 76 24.4 68 20 77 77 WSW 9 15 29.69 1005 10 16 0.00 0.00

Powered by AerisWeather